Flag for Spain Weather past 2 weeks in Alicante, Spain

Now
73 °F

Scattered clouds.


Feels Like: 77 °F
Forecast: 51 / 65 °F
Wind: 17 mph from West

Location: Alicante / El Altet

Current Time: Jan 30, 2015 at 3:14:45 PM

Latest Report: Jan 30, 2015 at 2:30 PM


Visibility: N/A

Pressure: 29.47 "Hg

Humidity: 33%

Dew point: 43 °F

Location of AlicanteLocation

Historic Weather in Alicante — Graph

°F

Alicante temperature yesterday

Maximum temperature yesterday: 70 °F (at 3:30 PM)
Minimum temperature yesterday: 45 °F (at 12:00 AM)
Average temperature yesterday: 58 °F

Past Weeks' High & Low Weather Summary

 TemperatureHumidityPressure
High73 °F (Jan 30, 1:30 PM)100% (Jan 16, 12:00 AM)30.33 "Hg (Jan 16, 12:00 AM)
Low34 °F (Jan 18, 5:00 AM)14% (Jan 25, 2:00 PM)29.50 "Hg (Jan 30, 1:30 PM)
Average51 °F56%30.01 "Hg
* Reported Jan 15 2:00 PM — Jan 30 2:00 PM, Alicante, Weather by CustomWeather, © 2014

Note: Actual official high and low records may vary slightly from our data, if they occured in-between our weather recording intervals... More about our weather records

Advertising

Alicante weather history for previous 24 hours

 ConditionsComfort  
Time TempWeatherWind HumidityBarometerVisibility
2:00 PM
Jan 30
73 °FPassing clouds.20 mph33%29.50 "HgN/A
1:30 PM73 °FPassing clouds.18 mph33%29.50 "HgN/A
1:00 PM72 °FPassing clouds.18 mph36%29.53 "HgN/A
12:30 PM72 °FPassing clouds.17 mph36%29.53 "HgN/A
12:00 PM72 °FPassing clouds.17 mph38%29.56 "HgN/A
11:30 AM70 °FPassing clouds.17 mph38%29.56 "HgN/A
11:00 AM68 °FPassing clouds.14 mph43%29.56 "HgN/A
10:30 AM66 °FPassing clouds.16 mph46%29.56 "HgN/A
10:00 AM66 °FPassing clouds.12 mph46%29.59 "HgN/A
9:30 AM64 °FPassing clouds.9 mph49%29.59 "HgN/A
9:00 AM63 °FPassing clouds.7 mph56%29.56 "HgN/A
8:30 AM61 °FSunny.10 mph55%29.56 "Hg10 mi
8:00 AM61 °FClear.9 mph59%29.56 "Hg10 mi
7:30 AM61 °FPassing clouds.8 mph55%29.56 "HgN/A
7:00 AM63 °FClear.12 mph52%29.56 "Hg10 mi
6:30 AM63 °FClear.13 mph56%29.56 "Hg10 mi
6:00 AM59 °FClear.10 mph63%29.56 "Hg10 mi
5:30 AM59 °FClear.10 mph63%29.56 "Hg10 mi
5:00 AM59 °FClear.9 mph63%29.59 "Hg10 mi
4:30 AM59 °FClear.8 mph59%29.59 "Hg10 mi
4:00 AM59 °FClear.9 mph63%29.59 "Hg10 mi
3:30 AM61 °FPassing clouds.13 mph59%29.62 "HgN/A
3:00 AM61 °FPassing clouds.13 mph55%29.62 "HgN/A
2:30 AM61 °FClear.13 mph55%29.62 "Hg10 mi
2:00 AM61 °FPassing clouds.14 mph55%29.62 "HgN/A
1:30 AM61 °FPassing clouds.12 mph55%29.65 "HgN/A
1:00 AM61 °FPassing clouds.10 mph55%29.68 "HgN/A
12:30 AM61 °FPassing clouds.10 mph55%29.71 "HgN/A
12:00 AM61 °FPassing clouds.14 mph52%29.68 "HgN/A
11:30 PM
Jan 29
61 °FClear.17 mph52%29.71 "Hg10 mi
11:00 PM63 °FClear.22 mph49%29.71 "Hg10 mi
10:30 PM63 °FClear.20 mph45%29.74 "Hg10 mi
10:00 PM63 °FPassing clouds.16 mph45%29.74 "HgN/A
9:30 PM63 °FPassing clouds.16 mph42%29.74 "HgN/A
9:00 PM63 °FPassing clouds.16 mph34%29.74 "HgN/A
8:30 PM64 °FPassing clouds.13 mph32%29.74 "HgN/A
8:00 PM64 °FPassing clouds.12 mph30%29.74 "HgN/A
7:30 PM64 °FPassing clouds.12 mph30%29.74 "HgN/A
7:00 PM64 °FPassing clouds.13 mph30%29.74 "HgN/A
6:30 PM63 °FPassing clouds.12 mph37%29.74 "HgN/A
6:00 PM64 °FPassing clouds.14 mph37%29.74 "HgN/A
5:30 PM66 °FPassing clouds.9 mph37%29.77 "HgN/A
5:00 PM64 °FPassing clouds.8 mph49%29.77 "HgN/A
4:30 PM66 °FPassing clouds.12 mph43%29.77 "HgN/A
4:00 PM70 °FPassing clouds.8 mph29%29.80 "HgN/A
3:30 PM70 °FPassing clouds.14 mph27%29.80 "HgN/A
3:00 PM68 °FPassing clouds.14 mph28%29.83 "HgN/A
Weather by CustomWeather, © 2014

See weather overviewHow to use our weather pages